Simultaneous Nadir Overpasses (SNOs) Predictions

Prediction of SNOs between GOES-15 and METOP-A Satellite Orbit:

Table of predicted SNOs for the next 14.0 days since TLE Epoch: 5/25/2013
Index Date Time (GOES-15) GOES-15 Lat,Lon METOP-A Lat,Lon Distance(km) Time Diff (sec)
1 05/26/2013 06:26:29 0.10,-135.27 0.23,-134.75 59.24 80
2 05/27/2013 18:48:00 -0.10,-135.26 0.78,-139.31 460.50 80
3 05/28/2013 18:27:19 -0.11,-135.24 -0.29,-134.30 106.23 80
4 05/30/2013 06:46:20 0.11,-135.18 -0.72,-138.90 424.17 80
5 05/31/2013 06:23:00 0.12,-135.15 0.40,-133.90 142.16 80
6 06/01/2013 18:44:31 -0.11,-135.14 0.65,-138.45 378.03 80
7 06/02/2013 18:21:11 -0.11,-135.11 -0.49,-133.46 188.44 80
8 06/04/2013 06:42:50 0.10,-135.04 -0.59,-138.04 342.16 80
9 06/05/2013 06:19:31 0.11,-135.01 0.55,-133.05 223.70 80
10 06/06/2013 18:41:01 -0.10,-134.99 0.49,-137.60 297.53 80
11 06/07/2013 18:17:42 -0.11,-134.95 -0.65,-132.60 268.20 80




NCC Satellite Simultaneous Nadir Overpasses (SNOs) Prediction Service
